sat.trackr.live / text

‹ back to catalog

STARLINK-5744

NORAD 55601 · 2023-020AJ

PAYLOAD ACTIVE UNKNOWN

§ Identity

Operator
Country
US
Launch date
2023-02-12
Launch site
AFETR
Launch vehicle
Mass (kg)
RCS (m²)

Purposes: comms

External: N2YO · Heavens-Above · Gunter

§ Orbital elements

Epoch: 2026-09-19T22:15:14.647104Z

Period
94.27 min
Inclination
43.0041°
Eccentricity
0.0001408
Mean motion
15.27572937 rev/d
Perigee alt
482.1 km
Apogee alt
484.0 km
Semi-major
6,861.2 km
B*
-8.8657e-6
RAAN
348.7032°
Arg perigee
270.7233°
Mean anomaly
89.3458°
Rev number
19,861

§ Raw data

STARLINK-57441 55601U 23020AJ  26262.92725286 -.00000506  00000+0 -88657-5 0  99942 55601  43.0041 348.7032 0001408 270.7233  89.3458 15.27572937198615

JSON: /api/v1/satellites/55601 · /tle

For live sub-satellite position, see the globe view (requires WebGL).

§ Visibility from observer

Set your observer location to see the next 7 days of passes ≥ 10°. The values pass through the URL so the page stays shareable.

No JS? Fill the form by hand. The geolocation button needs JavaScript.